This demonstration page uses our WeatherBlox Daily Observations layout. Learn more.

Left ArrowRight Arrow

39.01783, -85.05884

Hourly Observations for October 16, 2015

Temp ( °F °C ) Dew Point ( °F °C ) Humidity (%) Winds ( mph kmh ) Pressure ( in mb ) Visibility ( mi km ) Precip ( " mm )
12:52 am 00:52 Partly Cloudy 60 15.6 35 1.7 39 39 NW 14 22 30.06 1018 10 16 N/A
1:52 am 01:52 Mostly Clear 58 14.4 33 0.6 39 39 N 15 24 30.08 1019 10 16 N/A
2:52 am 02:52 Mostly Clear 53 11.7 35 1.7 51 51 NNW 9 15 30.10 1019 10 16 N/A
3:52 am 03:52 Clear 52 11.1 36 2.2 55 55 NNW 7 11 30.12 1020 10 16 N/A
4:52 am 04:52 Clear 50 10 36 2.2 59 59 NW 5 7 30.14 1021 10 16 N/A
5:52 am 05:52 Clear 51 10.6 35 1.7 54 54 NW 6 9 30.16 1021 10 16 N/A
6:52 am 06:52 Clear 47 8.3 35 1.7 63 63 NW 7 11 30.18 1022 10 16 N/A
7:52 am 07:52 Sunny 42 5.6 35 1.7 76 76 N N/A 30.20 1023 10 16 N/A
8:52 am 08:52 Sunny 47 8.3 38 3.3 71 71 N N/A 30.22 1024 10 16 N/A
9:52 am 09:52 Sunny 52 11.1 37 2.8 57 57 WNW 9 15 30.24 1024 10 16 N/A
10:52 am 10:52 Sunny 56 13.3 38 3.3 51 51 WNW 9 15 30.24 1024 10 16 N/A
11:52 am 11:52 Mostly Sunny 59 15 36 2.2 42 42 W 15 24 30.24 1024 10 16 N/A
12:52 pm 12:52 Mostly Sunny 61 16.1 32 undefined 34 34 NW 18 30 30.22 1024 10 16 N/A
1:52 pm 13:52 Mostly Sunny 62 16.7 31 -0.6 31 31 W 12 19 30.21 1023 10 16 N/A
2:52 pm 14:52 Mostly Sunny 63 17.2 30 -1.1 29 29 WNW 17 28 30.19 1022 10 16 N/A
3:52 pm 15:52 Partly Cloudy 63 17.2 29 -1.7 28 28 WNW 15 24 30.18 1022 10 16 N/A
4:52 pm 16:52 Partly Cloudy 62 16.7 29 -1.7 29 29 W 12 19 30.19 1022 10 16 N/A
5:52 pm 17:52 Mostly Sunny 61 16.1 26 -3.3 26 26 W 15 24 30.19 1022 10 16 N/A
6:52 pm 18:52 Mostly Sunny 58 14.4 26 -3.3 29 29 WNW 14 22 30.20 1023 10 16 N/A
7:52 pm 19:52 Clear 54 12.2 28 -2.2 37 37 WNW 9 15 30.22 1023 10 16 N/A
8:52 pm 20:52 Mostly Clear 51 10.6 28 -2.2 41 41 WNW 10 17 30.23 1024 10 16 N/A
9:52 pm 21:52 Mostly Clear 50 10 28 -2.2 43 43 WNW 9 15 30.23 1024 10 16 N/A
10:52 pm 22:52 Partly Cloudy 49 9.4 28 -2.2 44 44 NW 9 15 30.24 1024 10 16 N/A
11:52 pm 23:52 Partly Cloudy 46 7.8 31 -0.6 56 56 N 8 13 30.25 1025 10 16 N/A

Powered by AerisWeather